Cloud_Cover
0 0 0 0 0 0 0 4 4 5 5 5 5 5 5 5 5 5 5 2 5 5 5 5 9 95 44 17 6 3 0 0 0 0 0 1 5 5 5 4 7 3 24
2 3 1 0 0 1 5 5 5 5 5 5 5 5 5 5 5 5 5 17 23 5 5 79 70 6 8 5 58 99 91 4 0 2 5 5 5 5 5 5 4 5 26
58 49 60 50 22 5 5 28 13 5 5 5 6 18 8 5 5 48 63 96 20 70 94 96 5 5 5 5 5 9 1 0 0 5 5 5 37 17 5 16 6 4 16
48 97 100 79 40 43 62 71 22 34 71 41 49 65 48 39 100 88 96 41 43 90 18 5 4 5 5 5 5 0 23 24 5 5 5 5 5 5 8 5 11 12 11
59 57 65 65 85 94 92 53 40 44 67 98 100 100 100 100 99 70 79 15 23 39 13 5 5 5 5 1 5 88 67 9 33 50 25 24 32 5 5 5 28 5 5
89 64 52 61 99 100 100 100 95 99 94 100 100 100 100 100 78 87 97 21 6 66 84 8 5 5 0 0 4 100 100 100 29 87 100 50 27 44 16 8 17 96 65
100 100 100 100 100 100 100 100 100 100 100 100 100 100 100 100 100 100 82 34 30 36 12 5 5 0 0 0 0 5 48 65 88 100 100 100 78 63 100 87 49 88 100
100 100 100 100 100 100 100 100 100 100 100 100 100 100 100 100 100 100 100 41 98 61 9 5 1 0 0 0 5 5 45 100 100 100 61 40 82 84 53 44 39 72 76
100 100 100 100 100 100 100 100 100 100 100 100 100 100 100 100 100 100 100 100 72 50 5 5 1 0 4 5 5 49 100 99 100 100 100 60 5 57 100 100 97 98 73
100 100 100 100 100 100 100 100 100 100 100 100 100 100 100 100 100 100 100 100 100 88 83 91 99 6 5 7 22 92 100 100 100 100 82 8 94 27 64 84 99 100 100
100 100 100 100 100 100 100 100 100 100 100 100 100 100 100 100 100 100 100 100 100 100 94 16 53 87 51 25 96 91 100 100 100 91 79 100 100 100 97 71 81 85 100
100 100 100 100 100 100 100 100 100 100 100 100 100 100 100 100 100 100 100 100 100 100 100 100 52 39 49 74 100 100 100 100 100 58 44 100 100 100 100 100 61 59 99
100 100 100 100 100 100 100 100 100 100 100 100 100 100 100 100 100 100 100 100 100 100 100 81 80 61 66 8 100 100 97 100 98 98 90 97 100 79 98 91 60 79 69
100 100 100 100 100 100 100 100 100 100 100 100 100 100 100 100 100 100 100 100 100 99 34 99 100 100 100 100 100 100 100 100 100 100 92 81 96 1 19 72 1 37 50
100 100 100 100 100 100 100 100 100 100 100 100 100 100 100 100 100 100 100 100 99 46 86 100 90 70 82 95 100 100 100 100 100 100 100 100 97 38 11 58 56 19 68
100 100 100 100 100 100 100 100 100 100 100 100 100 100 100 100 100 100 100 100 93 51 100 100 100 100 100 100 94 100 81 100 100 100 100 100 100 100 100 100 100 100 100
100 100 100 100 100 100 100 100 100 100 100 100 100 100 100 100 100 100 100 100 100 100 100 100 100 94 91 100 89 100 88 60 48 100 100 100 100 100 90 69 100 100 100
100 100 100 100 100 100 100 100 100 100 100 100 100 100 100 100 100 100 98 99 83 100 100 100 76 95 72 83 100 100 100 34 93 49 100 97 100 100 100 72 13 42 99
100 100 100 100 100 100 100 100 100 100 100 100 100 100 100 93 78 97 100 100 100 97 100 100 100 100 100 88 32 47 22 23 18 33 11 26 14 88 98 100 100 69 90
47 87 100 100 100 100 100 100 100 100 100 100 100 75 64 76 99 100 100 100 99 98 100 100 100 100 86 41 4 7 50 80 62 26 5 7 40 14 27 64 66 100 100
97 100 100 100 100 100 85 99 100 99 100 85 93 97 96 100 100 100 100 100 63 100 100 11 40 17 6 1 1 5 19 58 95 96 61 44 17 5 5 5 5 20 87
100 100 100 100 100 100 100 100 100 76 100 100 100 100 100 100 100 94 100 100 100 100 86 54 5 0 0 0 0 0 5 5 10 8 3 3 5 4 0 0 4 5 5
100 100 100 100 100 100 100 100 92 98 100 100 100 100 100 100 99 100 100 100 99 100 31 14 3 0 0 1 5 5 5 5 5 0 0 5 5 5 1 3 0 0 5
100 100 100 100 100 100 100 100 100 100 100 100 100 100 100 100 100 100 100 100 100 97 9 5 5 5 5 5 5 5 5 5 5 5 5 5 5 2 0 2 3 3 4
100 100 100 100 100 100 100 100 100 100 100 100 100 100 100 100 100 100 100 100 94 21 5 5 3 0 3 1 1 3 5 5 5 5 5 5 5 5 5 5 5 2 5
100 100 100 100 100 100 100 100 100 100 100 100 100 100 100 100 100 100 100 68 55 32 5 5 5 5 5 4 0 3 5 5 6 23 41 5 86 51 11 5 5 5 5